Theta_e
303 302 302 302 304 304 303 302 301 301 302 302 303 301 299 297 296 296 297 299 299 298 299 298 299 299 300 303 303 304 303 304 301 305 306 306 305 305 306 307 309 308 312
303 303 303 303 303 303 302 302 302 301 302 303 303 301 300 297 295 296 298 299 299 299 299 298 303 304 302 303 304 304 304 305 303 303 303 303 303 304 304 304 306 308 308
304 303 303 303 303 302 302 301 302 302 302 302 302 301 299 297 295 296 298 300 300 300 298 298 300 299 299 302 303 304 304 305 305 304 302 304 303 303 303 304 304 304 305
304 304 303 302 302 302 302 301 302 303 302 302 302 301 300 297 296 296 297 301 304 299 298 298 299 298 298 298 303 303 304 304 305 302 302 301 302 302 302 301 300 302 301
305 304 303 302 302 302 302 302 303 303 303 303 303 302 303 300 298 298 298 298 303 299 297 297 299 303 307 306 304 303 304 303 303 302 301 300 300 300 299 301 301 302 302
305 303 303 303 303 303 302 302 302 303 302 302 302 302 304 303 302 303 302 298 303 298 297 295 296 300 303 305 307 306 306 303 301 300 300 299 300 300 300 300 299 298 298
305 304 304 303 304 303 303 302 303 303 301 301 301 301 304 301 301 301 303 297 296 302 300 294 295 297 301 298 303 305 304 305 306 302 300 300 300 301 301 299 300 300 299
304 304 305 304 304 303 303 305 306 305 301 300 301 301 302 300 302 299 300 295 299 301 302 299 294 294 298 298 300 300 300 300 302 302 302 303 303 303 303 303 304 303 299
304 304 305 305 307 305 302 304 307 305 303 300 301 300 299 298 301 299 297 294 294 301 303 302 301 298 300 300 295 295 297 300 304 305 304 304 304 303 304 305 303 300 298
305 306 308 308 308 304 305 306 305 306 304 304 302 299 301 297 299 298 297 293 292 296 299 300 302 300 299 299 293 292 293 296 295 301 303 304 303 304 305 305 303 302 301
307 309 308 307 305 305 302 306 305 304 303 302 298 298 297 297 295 297 297 294 292 292 293 297 299 299 298 297 298 294 294 296 297 300 302 302 304 305 305 306 306 305 301
308 308 307 306 306 305 301 301 305 304 301 295 294 295 295 293 297 296 296 295 297 291 292 297 298 298 297 297 297 298 298 300 298 297 297 295 295 298 301 303 303 303 304
304 304 306 306 304 302 301 299 298 297 299 293 293 292 292 293 292 295 295 295 296 293 295 298 298 297 298 298 298 299 300 299 299 298 298 298 299 300 300 302 301 299 298
302 302 301 300 299 300 301 302 303 300 299 294 294 292 291 291 291 291 292 291 295 297 297 298 300 298 298 298 296 295 299 300 300 298 298 300 300 300 300 299 299 300 299
301 301 300 300 299 300 300 304 304 304 302 296 296 294 291 291 292 293 292 295 295 295 295 297 296 296 295 295 295 297 295 298 298 298 299 299 300 299 300 300 301 300 298
300 300 299 299 299 300 301 303 299 298 298 294 295 297 295 294 294 294 293 293 292 293 295 294 294 294 294 295 295 296 296 297 298 298 298 298 298 298 298 299 300 299 298
299 300 301 300 300 302 302 302 299 300 296 295 293 294 294 295 293 293 293 292 293 294 294 294 295 295 294 295 295 295 295 297 297 298 298 298 298 299 297 298 298 299 299
300 300 300 298 301 301 302 301 300 300 299 299 295 295 293 293 294 292 292 293 293 295 294 292 295 295 294 292 297 295 293 293 293 294 297 298 298 298 298 298 299 298 299
303 301 300 299 303 301 301 301 300 300 300 299 299 295 294 293 292 292 292 294 292 294 294 294 295 295 292 293 293 294 290 289 289 290 293 297 297 298 298 297 297 292 292
307 301 296 297 301 302 302 302 301 300 300 295 296 296 293 295 296 295 295 291 290 292 295 293 294 293 292 292 293 292 291 291 288 288 289 293 295 296 296 296 296 295 296
307 303 293 297 301 302 303 302 302 300 299 298 294 292 289 296 295 295 291 291 290 292 294 295 294 291 291 291 293 292 290 290 287 286 286 288 292 291 294 292 293 293 295
303 304 302 301 302 303 303 302 298 300 297 292 293 293 288 295 291 290 290 291 291 292 296 295 295 294 293 292 292 292 290 288 284 283 283 284 288 290 291 290 290 293 292
302 301 302 303 304 299 302 300 299 299 296 293 296 296 295 291 290 290 291 292 294 295 296 296 295 292 290 289 288 287 285 283 282 282 281 281 283 285 288 289 291 292 293
301 302 302 303 303 303 300 299 298 293 294 293 294 292 291 291 290 291 294 295 295 295 296 295 292 288 287 286 286 286 283 282 282 282 281 280 280 282 284 286 289 292 294
301 302 299 298 301 302 300 296 296 297 295 295 295 292 291 290 290 291 292 293 294 295 294 291 288 287 287 286 285 284 282 282 281 283 283 282 280 280 283 286 289 293 295
301 302 303 303 301 299 297 297 297 296 295 296 295 294 294 293 291 291 291 292 291 293 292 289 288 286 286 285 284 283 283 283 282 282 283 283 282 281 285 289 290 291 294
Wind_Speed
7 6 5 4 3 2 3 3 3 4 4 5 4 4 4 6 6 6 5 5 6 5 5 5 6 5 4 4 4 4 3 2 3 0 2 3 4 4 7 7 7 8 8
7 6 6 5 3 3 3 3 3 4 4 4 4 4 4 5 6 6 6 6 5 5 6 6 6 4 6 5 5 6 4 4 2 1 1 3 3 3 4 5 6 6 6
7 7 6 6 5 4 3 3 3 4 3 4 3 3 4 5 6 6 6 6 6 5 5 5 6 6 6 6 6 7 5 3 3 1 2 2 2 3 2 4 5 5 6
7 6 6 7 6 5 4 4 3 3 3 4 4 4 3 5 5 6 6 6 5 5 5 5 5 6 6 6 6 7 7 4 2 4 2 2 2 2 2 3 3 3 4
7 6 7 6 5 4 4 4 4 4 4 4 5 5 4 4 4 6 6 6 5 6 6 6 5 9 14 9 4 6 7 5 3 3 2 1 1 2 2 1 1 1 3
8 8 6 5 4 4 4 4 4 4 4 4 5 5 5 3 7 11 9 5 5 4 5 6 6 9 11 13 10 10 8 4 3 2 1 0 0 0 0 1 1 2 2
7 6 6 5 4 4 4 4 4 4 3 5 6 5 5 4 6 9 10 5 5 4 4 5 6 5 9 7 10 8 7 8 6 1 1 0 0 1 1 0 1 0 0
7 6 6 5 6 5 4 4 3 3 4 4 4 4 4 5 5 7 8 6 5 4 3 4 4 6 6 7 6 5 5 4 4 2 1 1 1 2 1 1 2 1 1
7 6 6 5 5 4 4 5 4 2 3 3 3 5 4 5 6 7 5 5 6 5 4 4 4 4 8 9 6 6 6 5 6 4 1 1 1 2 3 2 2 1 1
7 7 6 5 5 5 5 4 3 3 3 3 4 4 3 3 6 7 5 2 4 4 5 5 6 6 7 7 4 4 5 5 6 5 2 1 2 3 5 3 2 2 1
6 5 5 5 6 5 3 2 2 1 2 2 3 3 2 3 4 6 7 3 2 3 4 4 4 8 7 7 6 4 4 6 6 3 2 3 2 1 1 2 3 1 1
6 6 6 5 4 3 3 2 1 1 2 3 3 3 3 3 6 6 7 5 5 2 4 4 4 6 6 8 6 8 10 6 3 3 2 2 2 2 2 3 2 1 2
6 7 5 4 3 3 3 2 1 1 1 1 1 1 2 2 3 6 7 7 7 3 3 6 7 5 6 5 7 9 7 4 4 3 3 3 2 3 4 2 0 2 2
6 5 3 3 2 2 2 2 3 3 2 3 2 2 1 2 3 3 4 5 7 4 5 4 5 5 5 3 3 5 4 4 4 3 3 3 3 3 2 0 1 1 1
5 4 3 3 3 3 3 4 4 3 4 4 4 4 3 1 3 3 3 4 4 4 5 3 3 3 4 4 4 3 3 3 4 4 3 3 3 3 2 2 1 1 1
5 4 3 2 3 2 3 4 4 8 8 9 7 6 3 4 5 4 5 7 6 5 2 2 3 3 3 4 4 4 2 4 3 3 3 3 3 3 2 2 1 1 1
5 4 3 3 3 3 2 2 3 3 0 4 8 8 9 8 7 2 4 9 8 5 2 2 2 3 3 3 4 4 4 3 4 2 3 4 4 4 2 2 2 2 1
4 4 3 3 3 2 2 2 2 2 3 3 4 5 7 5 5 2 4 5 4 3 1 2 4 3 3 2 1 3 4 4 3 4 4 3 3 3 3 3 3 2 2
4 3 2 3 3 2 1 2 3 2 2 1 1 1 4 5 3 3 1 1 1 3 3 3 3 3 3 3 3 2 2 3 3 4 4 4 5 4 2 3 4 5 4
4 6 4 2 2 1 3 3 3 2 2 2 1 1 1 2 1 1 2 1 2 3 4 4 4 3 4 4 4 2 2 3 4 4 4 4 4 4 3 3 2 4 5
3 3 4 3 3 3 3 3 3 1 2 2 1 2 3 2 1 1 1 2 3 4 4 3 4 4 4 4 4 1 1 3 3 4 4 5 5 4 3 3 3 4 4
3 2 3 3 3 3 3 2 3 2 2 3 2 2 3 3 2 1 2 3 4 4 4 4 4 3 3 3 2 2 2 3 4 4 4 5 5 5 4 3 4 3 3
3 3 3 3 3 4 2 2 1 2 4 4 3 3 2 2 2 2 3 4 4 4 4 3 3 3 3 4 4 4 4 4 4 4 4 4 4 5 4 5 4 4 4
2 3 3 3 3 3 2 2 3 4 6 5 4 3 3 3 3 4 4 3 3 3 3 3 3 4 4 4 4 4 3 3 3 5 5 4 4 5 4 4 5 5 5
3 3 3 4 4 2 3 4 4 5 5 5 4 4 4 3 3 4 4 4 3 3 4 4 3 4 5 6 6 7 6 7 5 7 5 6 6 6 5 5 6 5 7
4 4 4 3 3 3 5 5 5 5 7 4 3 1 2 3 2 3 4 4 4 3 4 3 4 6 7 6 7 8 8 8 7 7 5 6 6 4 4 6 9 5 7
Wind_Direction
175 173 169 193 207 211 225 262 294 305 308 316 309 318 342 345 348 340 333 332 338 332 336 331 317 326 316 316 308 290 279 262 268 158 77 14 18 12 20 21 18 20 32
172 165 186 198 207 212 215 261 274 286 307 297 302 320 346 350 344 343 329 330 331 344 337 341 326 341 327 312 316 310 286 263 249 230 94 37 29 355 21 30 21 21 26
159 167 186 206 211 217 238 259 277 283 307 311 302 317 337 342 344 336 322 322 319 357 353 342 334 340 327 327 327 326 317 278 202 232 83 54 24 13 5 32 23 13 23
161 172 190 208 211 210 239 249 273 277 289 293 281 281 304 327 339 339 334 325 337 356 351 346 341 338 325 325 329 334 341 351 74 97 81 64 32 353 39 47 25 7 12
163 183 207 204 210 221 247 263 275 268 269 278 282 271 283 324 342 335 337 323 341 344 356 346 338 344 349 347 333 344 356 10 53 67 75 79 7 351 33 38 355 29 26
176 195 204 192 208 229 252 274 280 258 278 279 281 277 298 308 327 342 348 339 341 348 342 340 338 351 343 348 348 14 21 14 23 31 35 12 222 76 350 65 360 357 356
181 195 204 203 211 230 239 253 266 266 266 277 281 291 287 287 333 344 351 351 339 312 349 344 338 341 349 342 344 23 18 26 40 14 342 340 312 195 168 49 345 18 34
189 193 206 204 219 218 230 257 239 240 257 268 282 281 267 270 300 351 356 347 326 336 330 339 341 336 338 350 340 359 349 352 360 357 330 335 252 161 178 331 306 339 14
193 198 206 214 235 200 232 233 244 233 255 259 262 283 272 320 348 351 356 349 341 344 349 320 335 341 341 360 5 353 336 328 334 345 320 287 203 216 267 303 349 172 253
197 204 206 200 208 194 220 216 225 224 256 289 304 285 285 306 354 356 5 347 338 334 332 333 334 342 342 354 8 348 342 316 334 335 18 2 246 256 266 263 278 265 263
200 188 196 174 175 187 211 237 242 293 263 317 310 305 342 19 6 13 3 359 319 324 325 325 324 328 341 357 360 347 292 301 316 317 21 39 17 127 352 313 294 336 257
196 176 163 173 180 177 201 244 270 336 36 3 346 4 27 34 20 351 346 344 342 317 307 309 302 317 338 0 359 344 345 348 349 3 351 338 319 313 290 287 312 318 281
155 161 163 165 176 187 202 233 185 111 117 136 131 46 312 323 335 327 320 335 338 325 287 302 317 339 324 353 351 352 355 352 349 358 336 317 279 267 278 291 46 331 314
145 145 148 167 215 235 233 233 229 187 192 197 199 231 249 300 313 330 342 332 335 330 338 338 341 360 10 319 347 351 345 345 336 317 318 304 308 323 309 352 286 292 285
157 157 191 191 221 254 258 244 239 221 190 196 208 186 174 223 248 247 292 325 322 304 322 7 1 347 346 343 339 330 343 345 356 330 323 319 313 323 326 328 277 304 251
155 170 195 206 246 256 264 300 252 249 231 210 180 165 223 223 214 263 315 326 330 332 20 352 341 329 326 329 332 323 323 333 330 331 326 323 312 311 318 302 302 284 273
175 180 210 217 249 266 252 254 297 321 288 188 196 191 182 192 218 249 346 340 343 353 5 324 339 345 324 345 348 332 319 327 325 347 330 315 321 317 293 296 301 285 276
164 195 192 245 269 228 203 249 252 261 305 301 226 220 224 208 234 358 8 28 348 343 328 305 309 316 312 302 170 283 324 343 353 335 319 319 320 331 339 341 331 275 263
169 186 201 259 257 234 256 272 272 266 292 306 214 157 201 230 277 299 207 142 281 303 315 317 307 309 312 307 288 304 335 335 340 345 343 358 354 330 339 346 348 345 304
182 182 178 222 307 257 266 268 316 303 325 337 229 216 84 144 216 349 41 28 308 291 297 299 313 314 301 298 307 281 296 354 354 343 332 324 323 324 331 340 322 323 329
170 169 201 232 266 270 287 297 291 348 232 199 172 64 172 122 105 25 315 307 295 296 299 304 308 306 303 301 302 261 356 337 335 330 324 318 316 313 320 317 308 302 303
163 196 211 235 270 278 282 303 291 248 164 134 96 78 111 76 72 12 320 292 289 289 284 288 287 285 297 314 339 72 4 338 328 327 316 310 311 310 305 293 295 284 299
170 202 230 248 248 268 300 311 258 172 138 134 147 145 135 161 207 242 258 271 286 295 316 322 324 353 47 43 33 28 4 335 319 312 300 299 302 303 307 299 294 296 296
167 232 252 267 275 271 271 217 143 132 149 166 168 170 194 209 231 263 265 283 303 312 322 340 57 65 41 26 10 7 359 332 308 297 292 279 283 294 287 286 279 282 284
221 249 244 246 247 242 185 150 159 177 173 174 180 188 198 208 252 265 271 275 313 319 25 78 72 60 40 16 359 347 330 314 304 305 303 296 288 285 276 279 274 277 282
244 248 257 243 210 182 169 167 190 186 198 178 123 208 227 233 268 308 314 327 339 43 88 77 66 47 22 2 347 331 322 318 312 300 290 288 286 278 275 283 287 282 282